Hourly Data Report for December 19, 2010

IQALUIT CLIMATE
NUNAVUT

63°44'50.000" N
68°32'40.000" W
33.50 m
2402592
71321
XFB

Download Data

Hourly Data (December 2010)
Hourly Data Report for December 19, 2010
TIME
LST
Temp Definition
°C
Dew Point Definition
°C
Rel Hum Definition
%
Precip. Amount Definition
mm

Wind Dir Definition
10's deg

Wind Spd Definition
km/h
Visibility Definition
km
Stn Press Definition
kPa
Hmdx Definition


Wind Chill Definition


Weather Definition


00:00 -1.4 -2.5 92   11 15   103.04   -6 LegendNANA
01:00 -1.3 -2.3 93   11 13   103.09   -6 LegendNANA
02:00 -1.2 -2.3 92   11 11   103.16   -5 LegendNANA
03:00 -1.7 -2.6 94   13 7   103.18   -4 LegendNANA
04:00 -1.6 -2.5 94   11 9   103.21   -5 LegendNANA
05:00 -1.0 -1.8 94   12 9   103.23   -4 LegendNANA
06:00 -0.8 -1.3 96   11 6   103.28   -3 LegendNANA
07:00 -1.1 -1.4 98   14 4   103.31   -2 LegendNANA
08:00 -0.8 -1.2 97   19 2   103.34   -1 LegendNANA
09:00 -0.4 -1.0 96   3 2   103.38   -1 LegendNANA
10:00 0.4 -0.3 95   11 7   103.40     LegendNANA
11:00 0.5 -0.5 93   14 9   103.41     LegendNANA
12:00 -0.6 -1.3 95   14 2   103.43   -1 LegendNANA
13:00 0.3 -0.7 93   16 7   103.45     LegendNANA
14:00 0.0 -0.7 95   15 6   103.49   -2 LegendNANA
15:00 0.2 -1.0 92   13 11   103.50     LegendNANA
16:00 -0.2 -1.1 94   14 9   103.51   -3 LegendNANA
17:00 -0.3 -0.9 96   14 17   103.53   -5 LegendNANA
18:00 -1.1 -1.5 97   14 13   103.55   -5 LegendNANA
19:00 -0.5 -1.2 95   13 17   103.56   -5 LegendNANA
20:00 -0.3 -0.8 96   13 13   103.57   -4 LegendNANA
21:00 -0.2 -0.6 97   12 9   103.54   -3 LegendNANA
22:00 -0.6 -1.0 97   11 6   103.52   -3 LegendNANA
23:00 -0.5 -0.9 97   16 6   103.49   -3 LegendNANA

Notes on Data Quality.

Legend

  • E = Estimated
  • M = Missing
  • NA = Not Available*
  • [empty] = Indicates an unobserved value
Date modified: